CZ-6A DEB

Satellite information

Favourite Embed

Satellite Type and Status

DEBRISIN ORBIT

Key statistics

Satellite CZ-6A DEB at a glance.

Uptime

1083

Days in orbit

Revolutions

≈ 14.1

Per day

Orbit

SSO

Sun Synchronous Orbit

Inclination

98.9

Latest

Satellite identification and parameters

Extended collection of information and parameters for CZ-6A DEB.

Object identification

Identified? True

Debris? True

Object name: CZ-6A DEB

International designator: 2022-151AHY

Object number (NORAD): 58430

Object ID (CCSDS): 58430

Country: PEOPLES REPUBLIC OF CHINA (PRC)

Current information (Y/N): Y

RCS size: SMALL

Orbital parameters

Period: 101.975 minutes

Inclination: 98.8959 deg

SMA: 7230.31 km

Apoapsis: 916.424 km

Periapsis: 787.926 km

RAAN: 293.5557 deg

Eccentricy: 0.0088861

Argument of periapsis: 314.7618 deg

Mean anomaly: 44.6347 deg

Mean motion: 14.12106318 rev/day

Mean motion (dot): 0.00007329 rev/day2

B* drag term: 0.0038702 1/REarth

Two-line elements (TLE)

Creation date: Oct. 26, 2025, 7:07 a.m.

Reference frame: TEME

Reference center: EARTH

Epoch: Oct. 25, 2025, 11:06 p.m. UTC

TLE line 0: 0 CZ-6A DEB

TLE line 1: 1 58430U 22151AHY 25298.96293279 .00007329 00000-0 38702-2 0 9997

TLE line 2: 2 58430 98.8959 293.5557 0088861 314.7618 44.6347 14.12106318 45810

Live tracking on map

Real-time ground track for satellite CZ-6A DEB.

In-orbit conjunctions

A list of the most updated potential collisions computed for object CZ-6A DEB.

Target Orbit TCA Probability of collision Miss distance Type
METEOR 1-25 LEO 2025-05-31 09:32:42 0.0004712367 288.0 (m) PAYLOAD

Associated space launch

Chinese satellite reported for atmospheric/ocean/environmental/spatial parameter research purposes, details TBD.

CZ-6A DEB was lifted into orbit during the mission ‘Long March 6A | Yunhai 3’, on board a Long March 6A space rocket.

The launch took place on Nov. 11, 2022, 10:52 p.m. from Launch Complex 9A.

For more information about the launch, click the button.

Launch to space Long March 6A | Yunhai 3
Long March 6A | Yunhai 3

Agency: N/A

Status: Launch Successful

Launch date: Nov. 11, 2022, 10:52 p.m. UTC

Rocket: Long March 6A

Launch pad: Launch Complex 9A

Location: Taiyuan Satellite Launch Center, People's Republic of China

...

Latest news about this satellite

There are no fresh news available about this satellite. Check back as we update our databases every day.


Newsletter sign-up

Weekly statistics, charts and insights to help you stay on top of the space industry.